Location: Unspecified
(0.0000°N, 0.0000°E)
Time: 22:59:58
(UTC+00:00)

N. Korean satellite - Pass Details

Date: 22 April 2018
Orbit: 458 x 514 km, 97.2° (Epoch: 24 April)

Event Time Altitude Azimuth Distance (km) Brightness Sun altitude
Rises 18:23:54 0° 177° (S) 2,625 10.1 -6.2°
Reaches altitude 10° 18:26:02 10° 182° (S) 1,736 9.3 -6.7°
Maximum altitude 18:29:41 53° 259° (W) 631 7.6 -7.6°
Drops below altitude 10° 18:33:19 10° 337° (NNW) 1,716 9.9 -8.5°
Sets 18:35:25 0° 341° (NNW) 2,591 10.7 -9.0°
